"Pseudo-MPEC" for P22htCR

Created 2025 Dec 6 0:35:11 UT using Find_Orb

Click here for an explanation of pseudo-MPECs

 
 Astrometry: 
     P22htCR* C2025 11 23.32188403 07 29.652+28 19 56.58   ~BNAZ 21.61wXNEOCPF52
     P22htCR  C2025 11 23.34652403 07 28.821+28 19 53.27   ~BNAZ 22.05wXNEOCPF52
     P22htCR  C2025 11 23.35880803 07 28.395+28 19 51.46   ~BNAZ 21.92wXNEOCPF52
     P22htCR  C2025 11 23.48479703 07 24.007+28 19 33.43   ~BNK5 22.50GVNEOCPF52
     P22htCR  C2025 11 23.48543903 07 23.971+28 19 33.19   ~BNK5 21.99GVNEOCPF52
     P22htCR  C2025 11 23.48609203 07 23.945+28 19 33.21   ~BNK5 22.05GVNEOCPF52
     P22htCR  C2025 11 23.48672903 07 23.947+28 19 32.72   ~BNK5 21.61GVNEOCPF52
     P22htCR KC2025 11 24.13844403 07 02.03 +28 17 58.8    ~BO3o 22.0 GVNEOCPH21
     P22htCR KC2025 11 24.14200603 07 01.90 +28 17 58.4    ~BO3o 22.3 GVNEOCPH21
     P22htCR 1C2025 11 26.43334603 05 45.497+28 12 22.43   ~BQN5 22.11GVNEOCPT12
     P22htCR 1C2025 11 26.43838603 05 45.325+28 12 21.70   ~BQN5 22.21GVNEOCPT12

Station data:
(F52) Pan-STARRS 2, Haleakala  (N20.707382 W156.255910)  US/Hawaii.
   Observers J. Herman, T. Lowe, P. Minguez, A. Schultz, I. Smith. Measurers
   K. Chambers, T. de Boer, J. Fairlamb, H. Gao, M. Huber, C.-C. Lin, E.
   Magnier, Y. Ramanjooloo, R. Wainscoat, R. Weryk. 1.8-m Ritchey-Chrétien +
   CCD.
(H21) Astronomical Research Observatory, Westfield  (N39.483054 W87.968270)
   US/Illinois.  Observer R. Holmes. Measurers S. Foglia, L. Buzzi, T.
   Linder, R. Holmes. 0.40-m f/5.32 astrograph + CCD.
(T12) Mauna Kea-UH/Tholen NEO Follow-Up (2.24-m)  (N19.822991 W155.469434)
   US/Hawaii.  Observer R. Weryk. 2.24-m f/10.1 University of Hawaii
   reflector.

Orbital elements:  P22htCR
   Perihelion 2023 Jun 4.316187 +/- 869 TT =  7:35:18.5 (JD 2460099.816187)
Epoch 2025 Nov 26.0 TT = JDT 2461005.5   Ju: 0.6853              AutoNEOCP
M  71.938663750 +/- 80              (J2000 ecliptic)
n   0.079430219 +/- 0.0182          Peri.  339.136167 +/- 100
a   5.359762453 +/- 0.821           Node   336.745888 +/- 5.0
e   0.22957203 +/- 0.169            Incl.    8.653451 +/- 0.28
P  12.40847                H 15.16  G  0.15   U 10.2  SR
q 4.129310868 +/- 0.838    Q 6.590214037 +/- 2.29
From 11 observations 2025 Nov. 23-26; mean residual 0".14
Residuals in arcseconds: 
251123 F52  .27-  .09-    251123 F52  .09-  .00     251124 H21  .02-  .28+    
251123 F52  .09+  .07+    251123 F52  .13-  .11+    251126 T12  .01+  .02-    
251123 F52  .12+  .00     251123 F52  .19+  .28-    251126 T12  .01-  .01+    
251123 F52  .09+  .14+    251124 H21  .08+  .17+    

Ephemerides (geocentric):
Date (UTC) HH   RA             Dec           delta  r     elong  mag " sig PA
---- --------  ------------   ------------  ------ ------ -----  --- --------
2025 12 06 01  03 00 50.673   +27 47 33.33  4.3622 5.2708 154.8 22.4 44.3  87
2025 12 06 02  03 00 49.499   +27 47 26.70  4.3625 5.2709 154.8 22.4 44.6  87
2025 12 06 03  03 00 48.326   +27 47 20.08  4.3629 5.2709 154.8 22.4 45.0  87
2025 12 06 04  03 00 47.154   +27 47 13.45  4.3632 5.2710 154.7 22.4 45.3  87
2025 12 06 05  03 00 45.983   +27 47 06.82  4.3635 5.2711 154.7 22.4 45.7  87
2025 12 06 06  03 00 44.813   +27 47 00.19  4.3639 5.2712 154.6 22.4 46.1  87
2025 12 06 07  03 00 43.644   +27 46 53.56  4.3642 5.2712 154.6 22.4 46.4  87
2025 12 06 08  03 00 42.476   +27 46 46.93  4.3646 5.2713 154.5 22.4 46.8  87
2025 12 06 09  03 00 41.309   +27 46 40.30  4.3649 5.2714 154.5 22.4 47.1  87
2025 12 06 10  03 00 40.143   +27 46 33.67  4.3652 5.2714 154.5 22.4 47.5  87
2025 12 06 11  03 00 38.979   +27 46 27.03  4.3656 5.2715 154.4 22.4 47.9  87
2025 12 06 12  03 00 37.815   +27 46 20.40  4.3659 5.2716 154.4 22.4 48.3  87
2025 12 06 13  03 00 36.652   +27 46 13.77  4.3663 5.2717 154.3 22.4 48.6  87
2025 12 06 14  03 00 35.490   +27 46 07.13  4.3666 5.2717 154.3 22.4 49.0  87
2025 12 06 15  03 00 34.329   +27 46 00.50  4.3669 5.2718 154.3 22.4 49.4  87
2025 12 06 16  03 00 33.169   +27 45 53.86  4.3673 5.2719 154.2 22.4 49.8  87
2025 12 06 17  03 00 32.010   +27 45 47.23  4.3676 5.2719 154.2 22.4 50.1  87
2025 12 06 18  03 00 30.853   +27 45 40.59  4.3680 5.2720 154.1 22.4 50.5  87
2025 12 06 19  03 00 29.696   +27 45 33.95  4.3683 5.2721 154.1 22.4 50.9  87
2025 12 06 20  03 00 28.540   +27 45 27.31  4.3687 5.2722 154.0 22.4 51.3  87
2025 12 06 21  03 00 27.386   +27 45 20.67  4.3690 5.2722 154.0 22.4 51.7  87
2025 12 06 22  03 00 26.232   +27 45 14.03  4.3694 5.2723 154.0 22.4 52.1  87
2025 12 06 23  03 00 25.079   +27 45 07.39  4.3697 5.2724 153.9 22.4 52.5  87
2025 12 07 00  03 00 23.928   +27 45 00.75  4.3700 5.2724 153.9 22.4 52.8  87
2025 12 07 01  03 00 22.777   +27 44 54.11  4.3704 5.2725 153.8 22.4 53.2  87
2025 12 07 02  03 00 21.628   +27 44 47.47  4.3707 5.2726 153.8 22.4 53.6  87
2025 12 07 03  03 00 20.479   +27 44 40.83  4.3711 5.2727 153.7 22.4 54.0  87
2025 12 07 04  03 00 19.332   +27 44 34.19  4.3714 5.2727 153.7 22.4 54.4  87
2025 12 07 05  03 00 18.185   +27 44 27.54  4.3718 5.2728 153.7 22.4 54.8  87
2025 12 07 06  03 00 17.040   +27 44 20.90  4.3721 5.2729 153.6 22.4 55.2  87
2025 12 07 07  03 00 15.896   +27 44 14.26  4.3725 5.2730 153.6 22.4 55.6  87
2025 12 07 08  03 00 14.752   +27 44 07.61  4.3728 5.2730 153.5 22.4 56.0  87
2025 12 07 09  03 00 13.610   +27 44 00.97  4.3732 5.2731 153.5 22.4 56.4  87
2025 12 07 10  03 00 12.469   +27 43 54.32  4.3735 5.2732 153.4 22.4 56.8  87
2025 12 07 11  03 00 11.329   +27 43 47.68  4.3739 5.2732 153.4 22.4 57.2  87
2025 12 07 12  03 00 10.190   +27 43 41.03  4.3742 5.2733 153.4 22.4 57.7  87
2025 12 07 13  03 00 09.052   +27 43 34.38  4.3746 5.2734 153.3 22.4 58.1  87
2025 12 07 14  03 00 07.915   +27 43 27.74  4.3749 5.2735 153.3 22.4 58.5  87
2025 12 07 15  03 00 06.779   +27 43 21.09  4.3753 5.2735 153.2 22.4 58.9  87
2025 12 07 16  03 00 05.644   +27 43 14.44  4.3757 5.2736 153.2 22.4 59.3  87
2025 12 07 17  03 00 04.510   +27 43 07.79  4.3760 5.2737 153.1 22.4 59.7  87
2025 12 07 18  03 00 03.377   +27 43 01.15  4.3764 5.2737 153.1 22.4 60.1  87
2025 12 07 19  03 00 02.245   +27 42 54.50  4.3767 5.2738 153.1 22.4 60.6  87
2025 12 07 20  03 00 01.115   +27 42 47.85  4.3771 5.2739 153.0 22.4 61.0  87
2025 12 07 21  02 59 59.985   +27 42 41.20  4.3774 5.2740 153.0 22.4 61.4  87
2025 12 07 22  02 59 58.856   +27 42 34.55  4.3778 5.2740 152.9 22.4 61.8  87
2025 12 07 23  02 59 57.729   +27 42 27.90  4.3782 5.2741 152.9 22.4 62.3  87
2025 12 08 00  02 59 56.602   +27 42 21.25  4.3785 5.2742 152.8 22.4 62.7  87